Orbital Elements at Epoch 2459200.5 (2020-Dec-17.0) TDB
Reference: JPL 20 (heliocentric ecliptic J2000)
Element | Value | Uncertainty (1-sigma) | Units |
e | .117497012908488 | 4.5121e-08 | |
a | 2.404658359607201 | 1.0817e-08 | au |
q | 2.12211818528793 | 1.1117e-07 | au |
i | 3.67394232531969 | 4.2085e-06 | deg |
node | 79.12079165939809 | 7.2846e-05 | deg |
peri | 88.93473148442415 | 7.5405e-05 | deg |
M | 252.2419645909547 | 2.1278e-05 | deg |
tp | 2459608.185875643292 (2022-Jan-28.68587564) | 8.2006e-05 | TDB |
period | 1362.00437094518 3.73 | 9.1905e-06 2.516e-08 | d yr |
n | .264316332369898 | 1.7836e-09 | deg/d |
Q | 2.687198533926472 | 1.2088e-08 | au |
|
| | Orbit Determination Parameters
Additional Information
|